Location: Saint-Usage
(47.1052°N, 5.2587°E)
Time: 18:42:15
(UTC+01:00)

NUDT-PHONESAT - Visible Passes

Search period start: 07 December 2021 00:00
Search period end: 17 December 2021 00:00
Orbit: 474 x 487 km, 97.4° (Epoch: 07 December)

Date Brightness Start Highest point End Pass type
(mag) Time Alt. Az. Time Alt. Az. Time Alt. Az.
07 Dec ? 06:23:30 10° ENE 06:24:23 11° E 06:25:17 10° ESE visible
07 Dec ? 18:32:24 10° SSE 18:35:59 82° ENE 18:39:38 10° N visible
08 Dec ? 07:28:57 10° NNE 07:32:32 65° E 07:36:05 10° S visible
08 Dec ? 18:07:04 10° SE 18:10:26 39° ENE 18:13:51 10° N visible
08 Dec ? 19:41:43 10° SW 19:43:59 16° W 19:46:16 10° NW visible
09 Dec ? 07:03:35 10° NNE 07:06:50 31° E 07:10:03 10° SSE visible
09 Dec ? 17:42:12 10° ESE 17:44:58 21° ENE 17:47:45 10° NNE visible
09 Dec ? 19:14:57 10° SSW 19:18:10 30° W 19:21:25 10° NNW visible
10 Dec ? 06:38:40 10° NE 06:41:01 16° E 06:43:20 10° SE visible
10 Dec ? 18:48:53 10° S 18:52:27 62° W 18:56:03 10° NNW visible
11 Dec ? 18:23:14 10° SSE 18:26:48 62° ENE 18:30:23 10° N visible
11 Dec ? 19:59:56 10° W 20:00:33 10° W 20:01:10 10° WNW visible
12 Dec ? 07:19:46 10° NNE 07:23:16 49° E 07:26:44 10° S visible
12 Dec ? 17:58:01 10° SE 18:01:13 31° ENE 18:04:27 10° N visible
12 Dec ? 19:31:55 10° SW 19:34:38 20° W 19:37:22 10° NW visible
13 Dec ? 06:54:29 10° NE 06:57:29 24° E 07:00:26 10° SSE visible
13 Dec ? 17:33:21 10° ESE 17:35:43 17° ENE 17:38:07 10° NNE visible
13 Dec ? 19:05:25 10° SSW 19:08:48 39° W 19:12:13 10° NNW visible
14 Dec ? 06:29:53 10° ENE 06:31:34 13° E 06:33:14 10° ESE visible
14 Dec ? 18:39:27 10° S 18:43:03 82° WSW 18:46:41 10° NNW visible
15 Dec ? 07:35:57 10° NNE 07:39:33 80° ESE 07:43:06 10° S visible
15 Dec ? 18:13:55 10° SSE 18:17:22 47° ENE 18:20:52 10° N visible
15 Dec ? 19:49:11 10° WSW 19:51:00 13° W 19:52:50 10° WNW visible
16 Dec ? 07:10:24 10° NNE 07:13:46 37° E 07:17:05 10° SSE visible
16 Dec ? 17:48:49 10° ESE 17:51:47 24° ENE 17:54:45 10° NNE visible
16 Dec ? 19:22:02 10° SSW 19:25:04 25° W 19:28:07 10° NW visible
